Temperature
15 16 16 16 18 19 19 19 19 18 18 16 16 17 18 18 18 17 13 13 13 13 13 13 13 13 13 14 14 14 14 14 14 14 14 14 14 14 14 14 14 14 14 14 14 14 14 14 14
15 15 16 17 19 19 19 19 18 17 16 14 14 15 16 15 13 12 12 13 13 13 13 13 13 13 13 13 14 14 14 14 14 14 14 14 14 14 14 14 14 14 14 14 14 14 14 14 14
15 15 16 18 18 19 19 18 17 16 14 14 15 14 15 14 11 11 12 13 13 12 12 13 13 13 13 13 13 13 13 14 14 14 14 14 14 14 14 14 14 14 14 14 14 14 14 14 14
15 15 16 18 18 17 17 17 16 15 14 13 14 14 12 11 11 11 12 12 12 12 12 12 13 13 13 13 13 13 13 13 13 14 13 13 14 14 14 14 14 14 14 14 14 14 14 14 14
14 16 17 17 17 16 16 15 14 16 15 14 14 14 13 11 11 11 12 12 12 12 12 12 12 12 12 12 13 13 13 13 13 13 13 13 13 13 13 13 14 14 14 14 14 14 14 14 14
14 16 17 17 17 16 15 13 14 15 14 13 13 13 12 11 11 11 11 11 11 11 11 12 12 12 12 12 12 12 12 13 13 13 13 13 13 13 13 13 13 13 13 13 13 13 13 13 13
15 16 16 17 16 15 14 12 13 14 13 12 11 13 11 10 10 10 10 11 11 11 11 11 11 11 11 12 12 12 12 12 12 12 12 13 13 13 13 13 13 13 13 13 13 13 13 13 13
13 15 15 15 15 15 13 11 11 11 12 10 10 12 11 9 9 10 10 10 10 10 10 11 11 11 11 11 11 12 12 12 12 12 12 12 12 12 13 13 13 13 13 12 12 12 12 12 12
12 15 15 14 14 14 12 11 10 9 9 9 8 9 8 9 9 9 9 10 10 10 10 10 10 10 10 11 11 11 11 11 11 11 12 12 12 12 12 12 12 12 12 12 12 12 12 12 12
12 14 13 12 12 12 11 10 9 10 10 9 8 8 8 8 9 9 9 9 9 9 9 9 10 10 10 10 10 10 11 11 11 11 11 11 11 11 12 12 12 12 12 12 12 12 12 12 11
11 12 11 10 9 9 9 9 8 10 10 9 8 7 8 8 8 8 8 8 8 9 9 9 9 9 9 10 10 10 10 10 10 11 11 11 11 11 11 11 11 11 11 11 11 11 11 11 11
10 9 9 8 7 8 8 8 8 8 8 7 7 6 7 7 7 7 8 8 8 8 8 8 9 9 9 9 9 9 10 10 10 10 10 10 11 11 11 11 11 11 11 11 11 11 11 11 11
9 8 7 7 6 6 7 7 7 6 6 6 6 6 6 6 6 6 7 7 7 7 8 8 8 8 9 9 9 9 9 9 9 9 10 10 10 10 10 10 10 10 11 11 11 10 10 10 10
8 7 7 7 7 6 7 6 6 6 5 5 5 5 5 5 6 6 6 6 6 7 7 7 7 8 8 8 8 8 8 9 9 9 9 9 9 10 10 10 10 10 10 10 10 10 10 10 10
6 8 8 7 7 6 7 7 6 5 4 4 4 4 4 5 5 5 6 6 6 6 6 6 7 7 7 7 7 8 8 8 8 8 9 9 9 9 9 9 9 9 9 10 10 10 9 10 10
8 8 9 7 6 6 7 9 7 4 4 4 4 4 4 4 4 5 5 5 5 5 6 6 6 6 7 7 7 7 7 7 8 8 8 8 8 9 9 9 9 9 9 9 9 9 9 9 9
8 9 9 8 6 6 7 8 6 4 4 4 4 3 3 3 4 4 4 5 5 5 5 5 6 6 6 6 7 7 7 7 7 7 8 8 8 8 8 8 8 8 8 8 8 9 8 8 8
8 8 8 8 6 5 6 6 6 4 3 4 3 3 2 2 3 3 4 4 4 4 5 5 5 5 6 6 6 6 6 6 7 7 7 7 7 8 8 8 8 8 8 8 8 8 8 8 8
6 7 7 7 5 5 5 6 6 5 3 3 3 3 2 2 2 2 3 3 4 4 4 4 5 5 5 5 6 6 6 6 6 6 7 7 7 7 7 7 7 7 7 7 7 7 7 7 7
6 6 6 6 4 4 4 5 6 5 4 3 3 3 2 2 1 2 2 3 3 3 3 4 4 4 4 5 5 5 5 5 6 6 6 6 6 6 7 7 7 7 7 7 7 6 6 6 6
5 5 5 5 4 4 4 6 6 4 3 2 2 1 1 1 0 1 1 2 2 2 3 3 3 3 4 4 4 5 5 5 5 5 5 6 6 6 6 6 6 6 6 6 6 6 6 6 6
5 4 4 4 4 5 4 6 7 5 3 2 1 1 0 -0 -0 -0 0 1 2 2 2 2 3 3 3 3 4 4 4 4 4 5 5 5 5 5 5 5 5 5 5 6 5 5 5 5 5
4 3 3 3 4 4 4 4 7 4 3 3 2 1 -0 -1 -1 -1 -0 0 1 1 1 2 2 2 3 3 3 3 3 3 4 4 4 4 4 4 4 5 5 5 5 5 5 5 5 5 5
2 2 2 2 3 4 4 4 6 5 4 3 2 0 -0 -1 -1 -1 -0 -0 0 1 1 1 1 2 2 2 2 2 2 3 3 3 3 3 3 4 4 4 4 4 4 4 4 4 4 4 4
2 3 4 4 4 5 2 3 5 4 3 2 1 -0 -1 -1 -1 -1 -1 -1 -0 0 0 0 1 1 1 1 1 2 2 2 2 2 2 3 3 3 3 3 3 3 3 3 3 3 4 4 4
2 3 4 4 5 5 2 3 4 2 1 -0 -1 -1 -2 -2 -2 -2 -1 -1 -1 -0 -0 -0 0 0 1 1 1 1 1 1 1 1 2 2 2 2 2 2 3 3 3 3 3 3 3 3 3
2 2 2 2 1 2 4 3 3 2 1 -0 -1 -2 -2 -2 -2 -2 -2 -2 -2 -1 -1 -1 -0 -0 -0 0 0 0 0 1 1 1 1 1 1 2 2 2 2 2 2 2 2 2 2 2 3
1 1 1 2 2 3 4 4 4 3 2 1 -1 -2 -2 -2 -2 -3 -2 -2 -2 -2 -2 -1 -1 -1 -1 -0 -0 -0 -0 0 0 0 0 0 1 1 1 1 1 1 2 2 2 2 2 2 2
-0 -0 0 1 1 3 3 5 3 2 1 1 -0 -2 -2 -3 -3 -3 -3 -3 -3 -3 -2 -2 -2 -2 -1 -1 -1 -1 -1 -1 -0 -0 -0 0 0 0 0 0 1 1 1 1 1 1 1 1 1
-0 0 0 1 1 0 2 3 2 0 -0 -1 -2 -2 -2 -3 -3 -3 -3 -3 -3 -3 -3 -3 -3 -2 -2 -2 -2 -2 -1 -1 -1 -1 -1 -1 -0 -0 -0 -0 0 0 0 1 1 1 1 1 1
Wind_Speed
5 3 1 2 3 4 8 5 4 4 3 1 0 1 1 1 1 1 3 3 2 1 4 5 4 5 6 6 6 7 7 8 8 8 9 9 10 10 10 10 11 11 11 11 12 13 14 13 14
3 1 1 2 5 9 7 5 6 4 2 2 1 1 1 0 2 3 3 3 2 1 4 4 5 5 6 6 6 6 7 7 7 8 8 8 9 9 10 10 10 11 11 11 12 13 13 13 13
1 0 2 3 6 9 6 3 4 2 2 2 1 1 1 0 2 3 4 3 1 3 4 4 5 5 6 6 6 6 7 7 7 7 7 7 8 9 9 10 10 11 11 11 12 13 13 13 14
2 2 2 6 10 8 5 3 3 3 2 1 1 1 1 3 3 4 4 2 1 3 4 5 5 5 6 6 6 6 7 7 6 7 7 7 8 8 9 9 10 11 11 11 12 12 12 13 13
1 3 6 8 11 6 3 2 3 3 2 1 2 2 1 2 5 5 4 2 2 2 3 4 5 5 5 5 6 6 6 6 6 6 6 7 7 8 9 9 11 11 11 11 11 12 12 12 12
3 3 7 11 11 6 4 2 2 3 3 1 1 1 1 3 6 5 3 2 1 2 2 3 4 5 5 6 5 5 6 6 6 6 6 6 7 7 9 9 10 11 11 11 11 11 12 11 11
4 5 8 10 9 7 4 2 3 3 3 1 1 2 1 2 5 4 2 2 2 2 1 2 3 4 4 5 5 5 5 5 5 6 6 7 7 8 9 9 10 10 10 11 11 11 11 11 11
2 3 6 8 9 8 3 3 2 2 2 1 1 2 1 4 4 2 1 2 2 1 1 1 1 2 3 4 5 5 5 5 5 6 6 7 7 8 9 10 10 10 10 11 11 11 11 11 11
2 5 8 7 7 4 3 3 1 1 1 0 1 3 4 3 2 1 1 1 1 1 1 1 1 1 2 3 4 4 4 5 5 6 6 6 6 6 7 8 10 11 11 11 11 11 11 11 10
2 6 7 3 2 3 3 3 2 2 3 3 2 3 3 2 1 0 0 1 1 1 1 1 0 0 1 2 3 4 4 4 4 4 5 5 5 5 6 8 10 11 11 11 11 11 10 8 7
2 4 3 1 1 1 2 2 1 4 5 5 4 3 2 1 1 1 2 2 2 2 1 1 1 0 1 1 2 2 2 3 3 3 4 4 4 4 5 6 7 8 8 8 8 8 6 6 5
2 2 1 0 1 0 2 2 2 4 5 4 4 2 1 2 2 2 3 3 3 2 2 2 2 1 1 1 2 2 2 2 2 3 3 4 3 3 4 4 5 5 5 5 6 5 5 5 6
4 3 1 1 1 1 0 2 3 5 5 4 2 1 2 2 3 3 3 3 3 3 3 3 3 2 1 1 2 2 2 2 2 2 3 3 3 2 3 4 4 4 5 5 5 5 5 5 5
2 2 2 2 2 2 2 3 4 5 3 3 2 2 3 3 3 3 3 4 4 4 4 4 3 2 1 1 2 2 2 2 3 2 3 3 3 3 3 3 3 4 4 5 5 5 5 5 5
2 1 2 2 2 1 3 5 5 4 2 3 3 3 3 4 4 4 4 4 4 4 4 4 3 2 1 1 1 1 2 3 2 2 3 3 3 3 3 3 3 3 5 5 5 6 5 5 5
2 2 3 1 1 1 5 8 3 1 3 4 5 5 4 5 5 4 4 5 4 4 3 3 2 2 2 1 1 1 2 2 2 2 3 3 3 4 4 3 3 4 4 5 5 5 4 4 4
2 4 5 3 1 2 5 8 3 2 4 5 5 5 5 5 5 5 5 5 5 4 3 3 2 1 1 1 0 2 2 2 2 2 2 3 3 4 4 3 3 4 4 3 4 5 5 5 4
3 4 5 5 2 3 7 10 6 4 5 6 6 5 5 5 5 5 5 5 4 4 3 2 2 1 1 0 0 1 2 2 2 1 1 3 3 4 4 3 4 4 3 3 4 5 5 5 5
3 5 7 5 3 4 9 12 11 7 7 8 7 6 6 5 5 4 5 5 4 3 3 2 2 1 0 0 1 1 1 1 1 1 1 2 3 4 4 3 4 4 4 4 5 4 6 5 5
4 6 7 5 2 5 8 13 11 9 9 8 8 7 6 5 4 4 5 5 4 3 3 3 2 2 2 1 2 2 2 2 1 1 1 2 3 4 4 4 4 4 4 5 5 5 4 3 4
4 5 6 6 6 4 8 9 7 5 6 6 6 4 3 3 4 4 5 5 4 4 4 3 3 3 2 1 1 1 1 1 1 1 1 1 2 3 4 4 4 4 5 5 5 6 6 5 4
5 4 5 5 5 4 3 7 5 4 5 4 4 4 4 3 4 4 4 5 5 5 4 4 3 3 2 1 1 2 2 3 3 2 2 1 1 2 3 4 4 4 4 4 5 5 6 6 6
3 3 3 4 5 5 4 6 7 2 5 6 5 4 4 4 3 4 4 4 4 5 4 3 3 3 2 1 1 2 3 2 2 2 2 2 2 1 3 4 4 4 4 4 5 5 6 6 6
2 2 1 2 3 6 5 6 7 3 5 6 5 4 3 3 3 4 4 4 4 4 4 3 3 3 2 2 1 2 2 2 2 2 2 2 1 1 1 3 3 4 4 5 5 6 7 6 7
1 1 3 3 4 5 2 6 8 4 4 5 5 4 3 2 2 3 4 4 4 4 4 3 3 2 2 2 2 2 2 3 3 3 3 3 2 2 2 3 3 3 4 5 5 5 6 7 8
2 3 3 5 6 6 3 7 5 3 4 3 3 3 3 2 3 3 4 4 4 4 4 4 3 3 2 2 2 2 2 2 2 3 3 3 3 3 3 3 4 4 4 5 5 5 5 6 7
2 4 2 3 4 7 7 7 7 4 4 3 3 3 3 3 3 4 4 4 4 4 4 4 4 3 3 2 2 2 2 2 3 3 3 3 3 3 4 3 4 4 4 5 5 5 6 6 6
2 2 2 3 5 7 8 8 6 5 5 4 4 4 5 4 4 4 4 4 3 4 4 4 4 3 3 3 2 2 2 3 3 3 3 3 4 3 3 4 4 4 4 5 5 5 6 6 6
3 3 4 4 4 6 8 7 2 5 5 5 6 5 5 4 4 4 4 4 3 4 4 4 4 4 3 3 3 2 2 2 2 3 3 3 3 4 4 4 4 5 5 5 5 6 6 7 7
4 5 6 5 6 6 7 8 0 4 5 5 6 6 5 5 4 4 3 3 3 4 4 4 4 4 4 3 3 3 2 2 2 3 3 3 4 4 4 4 4 5 5 5 6 6 7 7 7
Wind_Direction
330 327 266 223 208 222 232 217 205 181 181 181 173 226 202 221 293 68 49 34 6 150 157 152 136 124 120 113 106 105 105 106 106 114 113 114 116 114 111 108 106 104 102 100 100 99 94 93 91
324 292 197 210 225 226 228 216 207 201 167 129 167 212 197 167 17 31 26 2 342 154 153 152 137 131 127 122 116 113 111 109 108 109 117 116 118 118 116 111 108 105 105 103 101 99 97 95 94
230 262 199 201 223 234 223 186 195 180 172 187 176 237 271 23 33 13 360 337 321 142 146 136 132 135 132 131 127 121 118 114 113 112 114 118 119 122 121 116 112 108 105 103 101 99 98 96 96
196 168 197 223 225 230 240 199 164 168 172 188 208 163 130 48 5 358 352 354 130 136 140 131 128 132 132 134 136 134 129 123 120 118 114 122 126 126 123 119 115 112 107 104 103 101 99 99 97
196 195 211 225 230 223 222 226 196 205 192 160 193 207 148 72 14 9 8 25 114 133 135 135 126 125 128 133 138 140 135 132 126 122 120 122 127 128 126 119 117 117 114 111 109 106 103 101 100
180 202 222 229 224 216 217 229 207 217 197 171 185 227 137 50 17 9 13 32 84 110 120 133 131 121 124 128 136 135 134 130 129 127 124 127 122 124 126 122 119 119 120 117 112 110 107 105 103
210 210 233 235 227 222 216 211 218 216 202 192 265 236 182 26 10 2 20 44 82 97 98 102 143 141 133 131 134 140 138 135 131 128 126 126 124 121 127 126 123 120 120 119 116 113 109 107 103
234 206 227 229 230 228 196 187 216 231 220 354 307 247 255 346 354 3 49 67 81 84 82 76 128 149 152 151 137 132 142 145 144 132 126 126 131 133 133 136 129 125 122 117 116 114 110 106 102
231 222 231 227 227 220 186 195 208 269 215 257 338 335 354 360 10 53 62 50 55 22 21 47 70 116 146 151 152 150 138 138 144 137 130 139 149 146 141 133 127 125 122 118 115 114 111 110 104
215 225 234 241 252 207 183 211 217 213 227 256 290 343 15 20 21 87 171 242 242 259 292 333 83 146 158 152 152 162 163 153 149 149 152 154 154 149 140 129 124 122 120 118 113 113 116 118 115
191 224 213 249 333 188 192 217 264 241 252 266 275 289 330 337 305 275 262 255 249 247 266 308 317 212 160 145 151 148 157 159 155 149 155 158 149 145 141 136 130 128 128 125 120 118 119 118 113
179 205 223 275 21 209 226 221 244 266 280 318 302 286 265 265 271 286 290 299 296 278 282 303 328 299 200 163 155 149 142 150 151 150 148 146 142 148 148 141 141 140 136 131 130 125 121 118 117
213 212 200 141 86 77 177 244 262 274 296 315 330 310 276 282 289 304 313 318 316 307 306 313 321 312 273 184 163 158 157 155 148 147 145 143 144 145 153 149 138 138 138 138 136 133 130 124 117
156 171 211 253 249 254 245 268 261 271 307 298 301 306 301 294 294 306 313 318 321 315 309 308 309 306 286 214 179 169 157 149 140 150 142 147 151 149 154 149 143 141 147 146 143 139 135 129 121
132 169 224 239 245 241 255 262 250 270 279 282 283 297 309 313 306 297 301 301 304 307 310 312 309 317 309 261 191 157 140 141 130 147 154 145 148 155 150 150 144 149 150 149 145 139 133 129 124
180 216 241 215 259 246 241 258 255 254 257 272 282 287 294 303 308 310 312 306 304 300 300 305 316 324 324 327 178 126 129 134 129 143 160 157 160 155 154 155 151 155 152 149 148 148 143 139 134
198 247 258 258 260 268 240 263 281 269 261 268 275 281 286 298 310 315 317 312 306 299 294 297 304 315 324 327 42 121 125 120 122 135 158 163 172 159 157 153 150 152 150 149 149 156 154 148 138
261 259 263 263 307 262 247 259 269 268 263 265 270 275 280 289 302 313 318 317 311 301 294 288 290 311 342 23 75 121 115 102 96 107 136 156 166 164 159 151 153 152 147 155 152 150 153 150 139
282 263 274 283 305 284 260 267 270 266 265 266 268 267 269 281 301 324 329 329 324 320 306 298 284 284 279 148 194 189 179 170 139 128 144 149 156 159 160 159 161 158 158 161 155 150 152 151 145
269 273 279 286 299 284 284 276 271 260 255 258 260 260 266 285 310 331 342 343 336 321 310 293 288 277 258 233 216 210 190 190 185 179 141 135 156 161 164 167 169 172 165 160 157 156 160 157 165
272 272 285 291 305 263 295 276 254 253 251 261 263 268 278 277 295 318 331 336 337 333 324 307 289 281 281 258 176 136 143 147 160 167 156 152 154 166 165 166 168 175 170 173 174 172 170 172 175
277 292 281 280 282 281 306 289 273 263 260 268 271 270 278 288 299 314 327 331 331 326 321 318 314 293 289 263 196 186 201 214 221 212 202 178 161 173 180 172 167 168 170 177 182 183 182 178 184
293 322 280 266 259 272 250 264 280 276 273 275 268 271 281 289 301 317 324 324 328 330 329 327 327 323 315 281 216 209 213 227 229 199 199 179 156 177 195 179 173 174 177 181 183 187 191 187 189
312 302 271 227 236 255 241 243 279 258 271 284 271 271 277 291 308 324 334 338 340 344 343 337 339 338 341 335 266 221 216 208 198 198 210 202 181 191 202 186 183 186 185 188 189 191 198 197 193
336 289 284 258 244 258 233 244 263 286 287 273 272 271 288 294 305 317 326 335 340 346 345 339 338 338 341 341 317 252 229 217 210 212 216 213 203 214 216 206 198 198 197 193 193 191 202 204 197
229 234 249 273 277 284 251 249 266 302 304 300 287 278 297 310 310 313 315 319 324 331 337 337 328 325 328 324 312 284 247 231 227 228 223 222 218 220 217 216 207 205 203 195 193 193 200 207 205
217 224 266 264 274 273 262 269 279 274 293 285 286 289 290 294 296 302 305 306 316 323 327 325 320 316 316 313 306 279 255 242 237 233 229 224 225 222 218 221 215 208 203 198 196 199 200 204 209
269 200 189 220 265 270 270 267 270 273 275 274 277 274 280 288 294 298 295 299 312 319 322 323 317 308 304 306 301 291 270 254 247 238 235 233 227 216 217 223 223 213 208 201 199 204 204 204 209
188 196 221 229 255 265 276 275 245 260 266 267 269 273 278 284 291 294 299 304 313 323 326 328 327 318 310 304 296 294 287 276 261 251 247 243 236 220 214 219 223 215 216 213 205 208 205 208 210
226 225 207 232 243 243 268 276 21 270 290 285 285 288 285 288 297 298 301 314 323 327 328 325 324 319 308 297 290 286 283 275 265 264 264 255 245 230 218 218 226 219 216 217 213 210 208 210 211
Height
1519 1520 1522 1524 1524 1521 1517 1517 1518 1521 1524 1527 1527 1527 1525 1525 1527 1532 1532 1529 1529 1530 1532 1532 1533 1534 1535 1536 1537 1538 1539 1539 1540 1541 1541 1542 1543 1543 1544 1544 1545 1545 1545 1545 1545 1545 1545 1545 1546
1519 1521 1524 1524 1520 1518 1516 1517 1520 1522 1525 1527 1528 1528 1527 1528 1530 1530 1528 1528 1529 1530 1531 1532 1533 1534 1535 1536 1537 1538 1538 1539 1540 1541 1542 1542 1543 1543 1544 1544 1545 1545 1546 1546 1546 1546 1546 1546 1547
1519 1521 1523 1520 1517 1513 1513 1518 1521 1524 1526 1527 1528 1529 1529 1530 1530 1529 1528 1528 1529 1530 1531 1532 1533 1534 1535 1536 1536 1537 1538 1539 1540 1541 1541 1542 1543 1543 1544 1545 1545 1545 1546 1546 1547 1547 1547 1547 1548
1520 1522 1523 1519 1515 1516 1517 1520 1523 1525 1527 1528 1528 1529 1529 1530 1530 1529 1528 1528 1529 1529 1530 1531 1532 1534 1534 1535 1536 1537 1537 1538 1539 1540 1541 1542 1542 1543 1544 1544 1545 1546 1546 1546 1547 1547 1548 1548 1549
1519 1520 1519 1516 1514 1518 1521 1524 1524 1524 1526 1528 1528 1528 1529 1530 1528 1528 1527 1528 1528 1529 1530 1531 1532 1533 1534 1535 1535 1536 1537 1538 1538 1539 1540 1541 1542 1543 1543 1544 1544 1545 1546 1546 1547 1548 1548 1549 1549
1520 1518 1515 1511 1513 1519 1523 1525 1525 1525 1526 1528 1529 1528 1529 1529 1528 1527 1527 1528 1528 1528 1529 1530 1531 1532 1533 1534 1534 1535 1535 1536 1537 1538 1539 1540 1541 1542 1543 1543 1544 1545 1546 1547 1547 1548 1549 1549 1550
1519 1516 1512 1510 1513 1517 1523 1526 1526 1525 1526 1528 1529 1528 1529 1529 1528 1527 1527 1527 1528 1528 1529 1529 1530 1531 1531 1532 1533 1534 1534 1535 1536 1537 1538 1539 1540 1541 1542 1543 1544 1545 1546 1547 1547 1548 1549 1550 1550
1517 1517 1514 1513 1514 1516 1524 1526 1527 1527 1527 1529 1529 1529 1529 1528 1527 1527 1527 1527 1527 1527 1528 1528 1529 1530 1530 1531 1532 1533 1533 1534 1535 1536 1537 1538 1539 1540 1541 1542 1543 1544 1545 1546 1547 1548 1549 1550 1551
1517 1517 1512 1513 1515 1518 1524 1525 1527 1527 1528 1528 1528 1529 1529 1527 1526 1526 1526 1526 1526 1526 1527 1527 1527 1528 1529 1529 1530 1531 1532 1533 1534 1534 1535 1536 1538 1539 1540 1541 1542 1544 1545 1546 1547 1548 1549 1550 1551
1517 1513 1513 1519 1520 1521 1524 1525 1526 1526 1526 1527 1527 1527 1527 1526 1526 1525 1525 1524 1524 1524 1525 1525 1525 1526 1527 1527 1528 1529 1530 1531 1532 1533 1534 1534 1536 1537 1538 1540 1541 1543 1544 1545 1546 1547 1548 1550 1551
1517 1516 1519 1522 1523 1523 1524 1525 1526 1525 1524 1526 1526 1526 1525 1524 1524 1524 1524 1524 1523 1523 1523 1523 1523 1524 1524 1525 1526 1527 1528 1529 1530 1531 1532 1533 1534 1535 1536 1538 1540 1541 1543 1544 1545 1547 1548 1549 1550
1520 1521 1522 1524 1524 1524 1525 1525 1526 1526 1526 1526 1525 1524 1524 1523 1523 1522 1522 1522 1521 1521 1521 1521 1521 1521 1522 1523 1524 1524 1525 1526 1528 1529 1530 1531 1532 1533 1534 1535 1537 1539 1541 1542 1544 1545 1547 1548 1550
1520 1522 1524 1524 1524 1525 1525 1525 1525 1525 1525 1524 1523 1523 1522 1522 1521 1521 1520 1520 1519 1519 1518 1518 1518 1519 1519 1520 1521 1522 1523 1524 1525 1526 1528 1529 1530 1531 1532 1533 1535 1537 1539 1540 1542 1544 1545 1547 1548
1521 1523 1524 1524 1524 1524 1524 1524 1524 1522 1523 1523 1522 1521 1520 1519 1519 1518 1517 1517 1516 1516 1516 1516 1516 1516 1517 1517 1518 1519 1520 1521 1523 1524 1525 1527 1528 1529 1530 1532 1533 1535 1537 1538 1540 1542 1544 1545 1547
1523 1523 1522 1523 1523 1524 1524 1521 1522 1522 1522 1521 1520 1519 1518 1517 1517 1516 1515 1515 1514 1513 1513 1513 1513 1513 1514 1514 1515 1516 1517 1519 1520 1522 1523 1524 1526 1527 1528 1530 1531 1532 1534 1536 1538 1540 1542 1544 1545
1521 1519 1517 1521 1523 1523 1525 1514 1519 1521 1520 1520 1519 1517 1516 1515 1514 1514 1513 1512 1511 1511 1511 1510 1511 1511 1511 1512 1512 1513 1515 1516 1518 1519 1520 1522 1523 1524 1526 1528 1529 1530 1532 1534 1536 1538 1540 1542 1543
1517 1515 1514 1518 1522 1523 1521 1515 1519 1519 1519 1518 1517 1516 1514 1513 1512 1511 1510 1510 1509 1508 1508 1507 1507 1507 1508 1509 1509 1510 1512 1513 1515 1516 1517 1519 1520 1521 1524 1525 1526 1528 1529 1531 1533 1535 1537 1539 1541
1516 1515 1515 1516 1521 1522 1519 1515 1517 1517 1517 1515 1514 1513 1512 1510 1509 1508 1507 1506 1506 1505 1505 1505 1505 1504 1505 1506 1506 1507 1509 1510 1511 1513 1514 1516 1517 1519 1520 1521 1524 1525 1527 1528 1530 1532 1534 1537 1538
1521 1519 1517 1518 1523 1522 1516 1513 1512 1514 1514 1512 1511 1510 1509 1508 1507 1506 1504 1503 1503 1502 1501 1501 1501 1501 1502 1502 1503 1504 1505 1506 1508 1509 1511 1512 1513 1515 1517 1519 1521 1522 1523 1525 1527 1529 1531 1533 1536
1522 1519 1517 1518 1523 1521 1516 1510 1508 1509 1509 1509 1508 1507 1507 1506 1504 1502 1501 1501 1500 1499 1498 1498 1498 1498 1499 1499 1500 1501 1502 1503 1504 1506 1507 1508 1510 1511 1513 1515 1517 1518 1519 1521 1523 1526 1527 1529 1532
1521 1520 1519 1520 1521 1520 1517 1501 1502 1504 1506 1506 1506 1505 1505 1504 1502 1501 1499 1498 1497 1496 1496 1496 1495 1496 1496 1496 1497 1498 1498 1499 1501 1502 1502 1504 1506 1507 1509 1511 1513 1514 1515 1517 1519 1522 1524 1525 1528
1519 1522 1523 1522 1519 1512 1517 1500 1494 1499 1501 1502 1503 1503 1502 1501 1500 1499 1497 1496 1495 1495 1494 1493 1493 1493 1493 1493 1493 1494 1494 1495 1496 1498 1499 1500 1502 1503 1505 1507 1508 1510 1511 1513 1515 1518 1520 1522 1524
1524 1526 1525 1523 1519 1516 1515 1512 1491 1499 1498 1499 1500 1500 1500 1500 1499 1497 1496 1495 1494 1493 1492 1491 1491 1491 1490 1490 1491 1491 1492 1493 1493 1494 1495 1496 1498 1500 1501 1502 1504 1505 1507 1509 1511 1513 1516 1517 1520
1528 1526 1525 1523 1519 1514 1511 1509 1489 1493 1496 1496 1498 1498 1498 1498 1497 1496 1494 1493 1492 1490 1490 1489 1488 1488 1488 1488 1488 1489 1489 1490 1490 1490 1491 1492 1493 1495 1497 1498 1500 1501 1503 1505 1506 1509 1511 1513 1515
1527 1523 1514 1509 1507 1500 1514 1510 1494 1493 1496 1496 1497 1497 1496 1496 1495 1493 1492 1491 1490 1488 1487 1487 1486 1486 1485 1485 1486 1486 1486 1486 1487 1487 1488 1488 1489 1491 1492 1494 1495 1497 1499 1500 1502 1504 1506 1508 1510
1527 1524 1518 1510 1500 1495 1512 1504 1492 1497 1498 1497 1497 1496 1495 1494 1493 1492 1490 1489 1488 1487 1486 1485 1484 1483 1483 1483 1483 1483 1483 1483 1484 1484 1484 1484 1486 1487 1489 1490 1491 1492 1494 1496 1498 1500 1502 1503 1505
1526 1524 1526 1522 1522 1515 1497 1496 1494 1495 1495 1496 1495 1495 1493 1492 1491 1490 1489 1487 1486 1485 1484 1483 1482 1481 1480 1480 1480 1480 1480 1480 1481 1481 1481 1482 1483 1483 1484 1486 1487 1488 1490 1491 1493 1495 1497 1499 1500
1528 1526 1527 1521 1514 1500 1491 1492 1487 1489 1490 1492 1492 1492 1491 1490 1489 1488 1487 1486 1484 1483 1482 1481 1480 1479 1478 1477 1477 1477 1477 1477 1477 1478 1478 1478 1478 1479 1480 1481 1483 1484 1485 1487 1488 1489 1491 1493 1495
1528 1529 1525 1519 1517 1505 1493 1485 1487 1489 1489 1490 1490 1490 1490 1488 1487 1486 1485 1484 1482 1481 1480 1478 1477 1476 1475 1474 1474 1474 1474 1474 1474 1474 1474 1474 1474 1475 1476 1477 1478 1479 1480 1481 1482 1484 1485 1488 1490
1525 1522 1522 1517 1514 1514 1500 1489 1489 1490 1490 1490 1489 1489 1488 1487 1486 1484 1483 1481 1480 1478 1477 1476 1475 1473 1473 1472 1471 1470 1470 1470 1470 1470 1470 1470 1471 1471 1472 1472 1473 1474 1475 1476 1477 1478 1480 1482 1484